| time (UTC) | temp F | wind direction | speed MPH | gust MPH | rain 1hr in | rain 24hr in | rain mn in | humidity % | barometer mb |
| 20260903220115 | 82 | 42 | 0.0 | 0.0 | 0.00 | 0.13 | 0.00 | 74 | 1009.4 |
| 20260903215548 | 82 | 58 | 0.0 | 0.0 | 0.00 | 0.13 | 0.00 | 73 | 1009.4 |
| 20260903215049 | 83 | 58 | 0.0 | 0.0 | 0.00 | 0.13 | 0.00 | 72 | 1009.4 |
| 20260903214011 | 83 | 325 | 0.0 | 0.0 | 0.00 | 0.13 | 0.00 | 73 | 1009.3 |
| 20260903213506 | 83 | 11 | 0.0 | 0.0 | 0.00 | 0.13 | 0.00 | 71 | 1009.3 |
| 20260903213005 | 84 | 210 | 0.0 | 0.0 | 0.00 | 0.13 | 0.00 | 70 | 1009.3 |
| 20260903212504 | 84 | 201 | 0.0 | 0.0 | 0.00 | 0.13 | 0.00 | 72 | 1009.3 |
| 20260903212007 | 84 | 258 | 0.0 | 0.0 | 0.00 | 0.13 | 0.00 | 71 | 1009.4 |
| 20260903211503 | 84 | 274 | 0.0 | 0.0 | 0.00 | 0.13 | 0.00 | 72 | 1009.4 |
| 20260903211004 | 83 | 212 | 0.0 | 0.0 | 0.00 | 0.13 | 0.00 | 73 | 1009.4 |
| 20260903210503 | 84 | 255 | 0.0 | 0.0 | 0.00 | 0.13 | 0.00 | 71 | 1009.4 |
| 20260903210004 | 84 | 278 | 0.0 | 0.0 | 0.00 | 0.13 | 0.00 | 71 | 1009.4 |
| 20260903205502 | 84 | 49 | 0.0 | 0.0 | 0.00 | 0.13 | 0.00 | 72 | 1009.4 |
| 20260903205003 | 84 | 17 | 0.0 | 0.0 | 0.00 | 0.13 | 0.00 | 72 | 1009.3 |
| 20260903204029 | 83 | 243 | 0.0 | 0.0 | 0.00 | 0.13 | 0.00 | 72 | 1009.4 |
| 20260903203526 | 83 | 269 | 0.0 | 0.0 | 0.00 | 0.13 | 0.00 | 72 | 1009.3 |
| 20260903203024 | 83 | 30 | 0.0 | 0.0 | 0.00 | 0.13 | 0.00 | 73 | 1009.3 |
| 20260903202524 | 82 | 335 | 0.0 | 0.0 | 0.00 | 0.13 | 0.00 | 75 | 1009.4 |
| 20260903202025 | 81 | 247 | 0.0 | 0.0 | 0.00 | 0.13 | 0.00 | 76 | 1009.6 |
| 20260903201525 | 81 | 353 | 0.0 | 0.0 | 0.00 | 0.13 | 0.00 | 76 | 1009.7 |
| 20260903201028 | 81 | 356 | 0.0 | 0.0 | 0.00 | 0.13 | 0.00 | 74 | 1009.7 |
| 20260903200523 | 82 | 15 | 0.0 | 0.0 | 0.00 | 0.13 | 0.00 | 74 | 1009.7 |
| 20260903200023 | 82 | 24 | 0.0 | 0.0 | 0.00 | 0.13 | 0.00 | 72 | 1009.7 |
| 20260903195523 | 83 | 63 | 0.0 | 0.0 | 0.00 | 0.13 | 0.00 | 72 | 1009.7 |
| 20260903195025 | 83 | 236 | 0.0 | 0.0 | 0.00 | 0.13 | 0.00 | 68 | 1009.8 |
| 20260903194024 | 83 | 217 | 0.0 | 0.0 | 0.00 | 0.13 | 0.00 | 70 | 1009.9 |
| 20260903193520 | 83 | 231 | 0.0 | 0.0 | 0.00 | 0.13 | 0.00 | 71 | 1010.0 |
| 20260903193020 | 83 | 191 | 0.0 | 0.0 | 0.00 | 0.13 | 0.00 | 72 | 1009.9 |
| 20260903192518 | 82 | 255 | 0.0 | 0.0 | 0.00 | 0.13 | 0.00 | 71 | 1010.1 |
| 20260903192017 | 82 | 195 | 0.0 | 0.0 | 0.00 | 0.13 | 0.00 | 72 | 1010.1 |
| 20260903191519 | 82 | 198 | 0.0 | 0.0 | 0.00 | 0.13 | 0.00 | 72 | 1010.1 |
| 20260903191019 | 82 | 242 | 0.0 | 0.0 | 0.00 | 0.13 | 0.00 | 73 | 1010.2 |
| 20260903190518 | 82 | 280 | 0.0 | 0.0 | 0.00 | 0.13 | 0.00 | 73 | 1010.1 |
| 20260903190017 | 82 | 336 | 0.0 | 0.0 | 0.00 | 0.13 | 0.00 | 72 | 1010.2 |
| 20260903185516 | 82 | 229 | 0.0 | 0.0 | 0.00 | 0.13 | 0.00 | 72 | 1010.3 |
| 20260903185015 | 82 | 319 | 0.0 | 0.0 | 0.00 | 0.13 | 0.00 | 74 | 1010.3 |
| 20260903184033 | 82 | 304 | 0.0 | 0.0 | 0.00 | 0.13 | 0.00 | 74 | 1010.3 |
| 20260903183529 | 82 | 231 | 0.0 | 0.0 | 0.00 | 0.13 | 0.00 | 72 | 1010.4 |
| 20260903183029 | 82 | 218 | 0.0 | 0.0 | 0.00 | 0.13 | 0.00 | 73 | 1010.4 |
| 20260903182529 | 82 | 37 | 0.0 | 0.0 | 0.00 | 0.13 | 0.00 | 75 | 1010.5 |
| 20260903182029 | 81 | 244 | 0.0 | 0.0 | 0.00 | 0.13 | 0.00 | 74 | 1010.5 |
| 20260903181527 | 82 | 231 | 0.0 | 0.0 | 0.00 | 0.13 | 0.00 | 73 | 1010.5 |
| 20260903181028 | 82 | 186 | 0.0 | 0.0 | 0.00 | 0.13 | 0.00 | 73 | 1010.5 |
| 20260903180528 | 83 | 221 | 0.0 | 0.0 | 0.00 | 0.13 | 0.00 | 73 | 1010.5 |
| 20260903180031 | 83 | 56 | 0.0 | 0.0 | 0.00 | 0.13 | 0.00 | 75 | 1010.6 |
| 20260903175524 | 82 | 33 | 0.0 | 0.0 | 0.00 | 0.13 | 0.00 | 77 | 1010.5 |
| 20260903175023 | 81 | 100 | 0.0 | 0.0 | 0.00 | 0.13 | 0.00 | 79 | 1010.5 |
| 20260903174043 | 81 | 223 | 0.0 | 0.0 | 0.00 | 0.13 | 0.00 | 80 | 1010.6 |
| 20260903173542 | 81 | 249 | 0.0 | 0.0 | 0.00 | 0.13 | 0.00 | 81 | 1010.6 |
| 20260903173040 | 80 | 248 | 0.0 | 0.0 | 0.00 | 0.13 | 0.00 | 81 | 1010.7 |
| 20260903172541 | 80 | 248 | 0.0 | 0.0 | 0.00 | 0.13 | 0.00 | 81 | 1010.8 |
| 20260903172039 | 80 | 285 | 0.0 | 0.0 | 0.00 | 0.13 | 0.00 | 83 | 1010.8 |
| 20260903171545 | 79 | 285 | 0.0 | 0.0 | 0.00 | 0.13 | 0.00 | 85 | 1010.9 |
| 20260903171036 | 78 | 226 | 0.0 | 0.0 | 0.00 | 0.13 | 0.00 | 85 | 1011.0 |
| 20260903170536 | 78 | 221 | 0.0 | 0.0 | 0.00 | 0.13 | 0.00 | 86 | 1011.1 |
| 20260903170043 | 78 | 230 | 0.0 | 0.0 | 0.00 | 0.13 | 0.00 | 84 | 1011.1 |
| 20260903165533 | 78 | 218 | 0.0 | 0.0 | 0.00 | 0.13 | 0.00 | 84 | 1011.0 |
| 20260903165032 | 77 | 291 | 0.0 | 0.0 | 0.00 | 0.13 | 0.00 | 87 | 1010.9 |
| 20260903164014 | 77 | 359 | 0.0 | 0.0 | 0.00 | 0.13 | 0.00 | 87 | 1011.0 |
| 20260903163514 | 77 | 274 | 0.0 | 0.0 | 0.00 | 0.13 | 0.00 | 86 | 1011.0 |
| 20260903163021 | 77 | 227 | 0.0 | 0.0 | 0.00 | 0.13 | 0.00 | 87 | 1011.0 |
| 20260903162512 | 77 | 240 | 0.0 | 0.0 | 0.00 | 0.13 | 0.00 | 89 | 1010.9 |
| 20260903162011 | 76 | 319 | 0.0 | 0.0 | 0.00 | 0.13 | 0.00 | 89 | 1010.8 |
| 20260903161509 | 76 | 254 | 0.0 | 0.0 | 0.00 | 0.13 | 0.00 | 90 | 1010.9 |
| 20260903161007 | 75 | 279 | 0.0 | 0.0 | 0.00 | 0.13 | 0.00 | 90 | 1010.9 |
| 20260903160506 | 75 | 257 | 0.0 | 0.0 | 0.00 | 0.13 | 0.00 | 91 | 1010.9 |
| 20260903160005 | 75 | 257 | 0.0 | 0.0 | 0.00 | 0.13 | 0.00 | 92 | 1011.0 |
| 20260903155504 | 74 | 240 | 0.0 | 0.0 | 0.00 | 0.13 | 0.00 | 93 | 1011.0 |
| 20260903155003 | 74 | 245 | 0.0 | 0.0 | 0.00 | 0.13 | 0.00 | 94 | 1011.1 |
| 20260903154003 | 73 | 227 | 0.0 | 0.0 | 0.00 | 0.13 | 0.00 | 94 | 1011.3 |
| 20260903153502 | 73 | 237 | 0.0 | 0.0 | 0.00 | 0.13 | 0.00 | 94 | 1011.3 |
| 20260903153000 | 72 | 237 | 0.0 | 0.0 | 0.00 | 0.13 | 0.13 | 95 | 1011.4 |
| 20260903152502 | 72 | 237 | 0.0 | 0.0 | 0.01 | 0.13 | 0.13 | 95 | 1011.5 |
| 20260903152001 | 72 | 280 | 0.0 | 0.0 | 0.01 | 0.13 | 0.13 | 96 | 1011.5 |
| 20260903151600 | 72 | 264 | 0.0 | 0.0 | 0.01 | 0.13 | 0.13 | 96 | 1011.6 |
| 20260903151100 | 72 | 260 | 0.0 | 0.0 | 0.01 | 0.13 | 0.13 | 96 | 1011.6 |
| 20260903150600 | 72 | 263 | 0.0 | 0.0 | 0.01 | 0.13 | 0.13 | 96 | 1011.7 |
| 20260903150111 | 72 | 263 | 0.0 | 0.0 | 0.01 | 0.13 | 0.13 | 96 | 1011.7 |
| 20260903145559 | 72 | 270 | 0.0 | 0.0 | 0.01 | 0.13 | 0.13 | 96 | 1011.8 |
| 20260903145059 | 71 | 236 | 0.0 | 0.0 | 0.01 | 0.13 | 0.13 | 96 | 1011.9 |
| 20260903144700 | 71 | 235 | 0.0 | 0.0 | 0.01 | 0.13 | 0.13 | 97 | 1012.1 |
| 20260903144055 | 71 | 235 | 0.0 | 0.0 | 0.01 | 0.13 | 0.13 | 97 | 1012.1 |
| 20260903143555 | 71 | 255 | 0.0 | 0.0 | 0.01 | 0.13 | 0.13 | 97 | 1012.2 |
| 20260903143056 | 71 | 271 | 0.0 | 0.0 | 0.01 | 0.13 | 0.13 | 97 | 1012.2 |
| 20260903142554 | 71 | 285 | 0.0 | 0.0 | 0.00 | 0.12 | 0.12 | 97 | 1012.2 |
| 20260903142054 | 71 | 259 | 0.0 | 0.0 | 0.00 | 0.12 | 0.12 | 97 | 1012.3 |
| 20260903141554 | 71 | 311 | 0.0 | 0.0 | 0.00 | 0.12 | 0.12 | 97 | 1012.4 |
| 20260903141053 | 71 | 293 | 0.0 | 0.0 | 0.00 | 0.12 | 0.12 | 97 | 1012.3 |
| 20260903140555 | 71 | 293 | 0.0 | 0.0 | 0.00 | 0.12 | 0.12 | 97 | 1012.6 |
| 20260903140053 | 71 | 207 | 0.0 | 0.0 | 0.00 | 0.12 | 0.12 | 97 | 1012.8 |
| 20260903135551 | 71 | 220 | 0.0 | 0.0 | 0.00 | 0.12 | 0.12 | 97 | 1012.7 |
| 20260903135052 | 71 | 252 | 0.0 | 0.0 | 0.00 | 0.12 | 0.12 | 97 | 1012.6 |
| 20260903134651 | 71 | 259 | 0.0 | 0.0 | 0.00 | 0.12 | 0.12 | 97 | 1012.6 |
| 20260903134054 | 71 | 255 | 0.0 | 0.0 | 0.00 | 0.12 | 0.12 | 97 | 1012.6 |
| 20260903133553 | 71 | 262 | 0.0 | 0.0 | 0.00 | 0.12 | 0.12 | 97 | 1012.6 |
| 20260903133051 | 71 | 234 | 0.0 | 0.0 | 0.00 | 0.12 | 0.12 | 97 | 1012.7 |
| 20260903132552 | 71 | 280 | 0.0 | 0.0 | 0.00 | 0.12 | 0.12 | 97 | 1012.6 |
| 20260903132052 | 70 | 248 | 0.0 | 0.0 | 0.00 | 0.12 | 0.12 | 97 | 1012.7 |
| 20260903131551 | 70 | 325 | 0.0 | 0.0 | 0.00 | 0.12 | 0.12 | 97 | 1012.7 |
| 20260903131051 | 70 | 256 | 0.0 | 0.0 | 0.00 | 0.12 | 0.12 | 97 | 1012.8 |
| 20260903130551 | 70 | 254 | 0.0 | 0.0 | 0.00 | 0.12 | 0.12 | 97 | 1012.7 |
| 20260903130056 | 70 | 254 | 0.0 | 0.0 | 0.00 | 0.12 | 0.12 | 97 | 1012.7 |
| 20260903125550 | 70 | 250 | 0.0 | 0.0 | 0.00 | 0.12 | 0.12 | 97 | 1012.7 |
| 20260903125050 | 70 | 243 | 0.0 | 0.0 | 0.00 | 0.12 | 0.12 | 97 | 1012.7 |
| 20260903124649 | 70 | 317 | 0.0 | 0.0 | 0.00 | 0.12 | 0.12 | 97 | 1012.7 |
| 20260903124052 | 70 | 321 | 0.0 | 0.0 | 0.00 | 0.12 | 0.12 | 97 | 1012.7 |
| 20260903123549 | 70 | 340 | 0.0 | 0.0 | 0.00 | 0.12 | 0.12 | 97 | 1012.7 |
| 20260903123051 | 70 | 349 | 0.0 | 0.0 | 0.00 | 0.12 | 0.12 | 97 | 1012.8 |
| 20260903122552 | 70 | 236 | 0.0 | 0.0 | 0.00 | 0.12 | 0.12 | 97 | 1012.9 |
| 20260903122048 | 70 | 345 | 0.0 | 0.0 | 0.00 | 0.12 | 0.12 | 97 | 1012.9 |
| 20260903121553 | 70 | 345 | 0.0 | 0.0 | 0.00 | 0.12 | 0.12 | 97 | 1013.0 |
| 20260903121047 | 70 | 296 | 0.0 | 0.0 | 0.00 | 0.12 | 0.12 | 97 | 1013.1 |
| 20260903120550 | 70 | 32 | 0.0 | 0.0 | 0.00 | 0.12 | 0.12 | 97 | 1013.1 |
| 20260903120056 | 70 | 297 | 0.0 | 0.0 | 0.00 | 0.12 | 0.12 | 97 | 1013.2 |
| 20260903115548 | 69 | 330 | 0.0 | 0.0 | 0.00 | 0.12 | 0.12 | 97 | 1013.3 |
| 20260903115050 | 69 | 18 | 0.0 | 0.0 | 0.00 | 0.12 | 0.12 | 97 | 1013.3 |
| 20260903114647 | 69 | 300 | 0.0 | 0.0 | 0.00 | 0.12 | 0.12 | 97 | 1013.2 |
| 20260903114054 | 69 | 3 | 0.0 | 0.0 | 0.00 | 0.12 | 0.12 | 97 | 1013.3 |
| 20260903113554 | 69 | 68 | 0.0 | 0.0 | 0.00 | 0.12 | 0.12 | 97 | 1013.2 |
| 20260903113057 | 69 | 53 | 0.0 | 0.0 | 0.00 | 0.12 | 0.12 | 97 | 1013.2 |
| 20260903112552 | 69 | 32 | 0.0 | 0.0 | 0.00 | 0.12 | 0.12 | 97 | 1013.2 |
| 20260903112053 | 68 | 46 | 0.0 | 0.0 | 0.01 | 0.12 | 0.12 | 97 | 1013.3 |
| 20260903111552 | 68 | 42 | 0.0 | 0.0 | 0.01 | 0.12 | 0.12 | 97 | 1013.3 |
| 20260903111052 | 68 | 255 | 0.0 | 0.0 | 0.01 | 0.12 | 0.12 | 97 | 1013.4 |
| 20260903110553 | 68 | 73 | 0.0 | 0.0 | 0.01 | 0.12 | 0.12 | 97 | 1013.3 |
| 20260903110058 | 67 | 53 | 0.0 | 0.0 | 0.01 | 0.12 | 0.12 | 97 | 1013.4 |
| 20260903105551 | 67 | 53 | 0.0 | 0.0 | 0.01 | 0.12 | 0.12 | 97 | 1013.2 |
| 20260903105051 | 67 | 39 | 0.0 | 0.0 | 0.01 | 0.12 | 0.12 | 96 | 1013.2 |
| 20260903104653 | 67 | 72 | 0.0 | 0.0 | 0.01 | 0.12 | 0.12 | 96 | 1013.2 |
| 20260903104044 | 67 | 72 | 0.0 | 0.0 | 0.01 | 0.12 | 0.12 | 96 | 1013.1 |
| 20260903103546 | 67 | 72 | 0.0 | 0.0 | 0.01 | 0.12 | 0.12 | 96 | 1012.9 |
| 20260903103044 | 66 | 75 | 0.0 | 0.0 | 0.01 | 0.12 | 0.12 | 96 | 1012.8 |
| 20260903102544 | 66 | 314 | 0.0 | 0.0 | 0.01 | 0.12 | 0.12 | 96 | 1012.8 |
| 20260903102043 | 66 | 313 | 0.0 | 0.0 | 0.01 | 0.12 | 0.12 | 96 | 1012.8 |
| 20260903101543 | 66 | 26 | 0.0 | 0.0 | 0.00 | 0.11 | 0.11 | 96 | 1012.8 |
| 20260903101045 | 66 | 25 | 0.0 | 0.0 | 0.01 | 0.11 | 0.11 | 96 | 1012.9 |
| 20260903100542 | 66 | 26 | 0.0 | 0.0 | 0.05 | 0.11 | 0.11 | 96 | 1012.8 |
| 20260903100042 | 65 | 355 | 0.0 | 0.0 | 0.08 | 0.11 | 0.11 | 96 | 1012.9 |
| 20260903095540 | 65 | 288 | 0.0 | 0.0 | 0.08 | 0.11 | 0.11 | 96 | 1013.2 |
| 20260903095040 | 65 | 288 | 0.0 | 0.0 | 0.08 | 0.11 | 0.11 | 95 | 1013.3 |
| 20260903094640 | 65 | 285 | 0.0 | 0.0 | 0.08 | 0.11 | 0.11 | 95 | 1013.3 |
| 20260903094047 | 65 | 285 | 0.0 | 0.0 | 0.08 | 0.11 | 0.11 | 95 | 1013.3 |
| 20260903093547 | 65 | 285 | 0.0 | 0.0 | 0.08 | 0.11 | 0.11 | 95 | 1013.3 |
| 20260903093047 | 64 | 285 | 0.0 | 0.0 | 0.09 | 0.11 | 0.11 | 95 | 1013.4 |
| 20260903092550 | 64 | 285 | 0.0 | 0.0 | 0.09 | 0.11 | 0.11 | 95 | 1013.5 |
| 20260903092046 | 64 | 285 | 0.0 | 0.0 | 0.10 | 0.11 | 0.11 | 94 | 1013.4 |
| 20260903091556 | 64 | 285 | 0.0 | 0.0 | 0.10 | 0.11 | 0.11 | 94 | 1013.4 |
| 20260903091045 | 64 | 272 | 0.0 | 0.0 | 0.10 | 0.11 | 0.11 | 94 | 1013.4 |
| 20260903090544 | 64 | 271 | 0.0 | 0.0 | 0.08 | 0.08 | 0.08 | 94 | 1013.5 |
| 20260903090044 | 64 | 271 | 0.0 | 0.0 | 0.04 | 0.04 | 0.04 | 94 | 1013.6 |
| 20260903085543 | 64 | 271 | 0.0 | 0.0 | 0.03 | 0.03 | 0.03 | 94 | 1013.6 |
| 20260903085043 | 64 | 271 | 0.0 | 0.0 | 0.03 | 0.03 | 0.03 | 93 | 1013.5 |
| 20260903084644 | 64 | 271 | 0.0 | 0.0 | 0.03 | 0.03 | 0.03 | 93 | 1013.5 |
| 20260903084002 | 64 | 271 | 0.0 | 0.0 | 0.03 | 0.03 | 0.03 | 93 | 1013.7 |
| 20260903083502 | 64 | 271 | 0.0 | 0.0 | 0.03 | 0.03 | 0.03 | 93 | 1013.9 |
| 20260903083103 | 64 | 271 | 0.0 | 0.0 | 0.03 | 0.03 | 0.03 | 93 | 1013.9 |
| 20260903082600 | 64 | 271 | 0.0 | 0.0 | 0.02 | 0.02 | 0.02 | 93 | 1013.9 |
| 20260903082100 | 64 | 271 | 0.0 | 0.0 | 0.02 | 0.02 | 0.02 | 93 | 1014.0 |
| 20260903081601 | 64 | 338 | 0.0 | 0.0 | 0.01 | 0.01 | 0.01 | 93 | 1014.1 |
| 20260903081100 | 64 | 338 | 0.0 | 0.0 | 0.01 | 0.01 | 0.01 | 93 | 1013.9 |
| 20260903080559 | 64 | 340 | 0.0 | 0.0 | 0.01 | 0.01 | 0.01 | 92 | 1014.0 |
| 20260903080101 | 64 | 340 | 0.0 | 0.0 | 0.00 | 0.00 | 0.00 | 92 | 1014.1 |
| 20260903075559 | 64 | 327 | 0.0 | 0.0 | 0.00 | 0.00 | 0.00 | 92 | 1014.1 |
| 20260903075056 | 64 | 327 | 0.0 | 0.0 | 0.00 | 0.00 | 0.00 | 92 | 1014.3 |
| 20260903074656 | 64 | 333 | 0.0 | 0.0 | 0.00 | 0.00 | 0.00 | 92 | 1014.3 |
| 20260903074030 | 64 | 333 | 0.0 | 0.0 | 0.00 | 0.00 | 0.00 | 91 | 1014.3 |
| 20260903073530 | 64 | 333 | 0.0 | 0.0 | 0.00 | 0.00 | 0.00 | 91 | 1014.4 |
| 20260903073029 | 64 | 333 | 0.0 | 0.0 | 0.00 | 0.00 | 0.00 | 91 | 1014.5 |
| 20260903072527 | 64 | 333 | 0.0 | 0.0 | 0.00 | 0.00 | 0.00 | 91 | 1014.6 |
| 20260903072027 | 64 | 333 | 0.0 | 0.0 | 0.00 | 0.00 | 0.00 | 90 | 1014.7 |
| 20260903071526 | 64 | 333 | 0.0 | 0.0 | 0.00 | 0.00 | 0.00 | 90 | 1014.7 |
| 20260903071024 | 64 | 333 | 0.0 | 0.0 | 0.00 | 0.00 | 0.00 | 89 | 1014.8 |
| 20260903070524 | 64 | 333 | 0.0 | 0.0 | 0.00 | 0.00 | 0.00 | 89 | 1014.9 |
| 20260903070023 | 64 | 333 | 0.0 | 0.0 | 0.00 | 0.00 | 0.00 | 88 | 1015.0 |
| 20260903065522 | 64 | 333 | 0.0 | 0.0 | 0.00 | 0.00 | 0.00 | 87 | 1015.1 |
| 20260903065020 | 65 | 333 | 0.0 | 0.0 | 0.00 | 0.00 | 0.00 | 87 | 1015.2 |
| 20260903064623 | 65 | 333 | 0.0 | 0.0 | 0.00 | 0.00 | 0.00 | 86 | 1015.5 |
| 20260903064021 | 65 | 333 | 0.0 | 0.0 | 0.00 | 0.00 | 0.00 | 86 | 1015.6 |
| 20260903063524 | 65 | 333 | 0.0 | 0.0 | 0.00 | 0.00 | 0.00 | 86 | 1015.5 |
| 20260903063027 | 65 | 333 | 0.0 | 0.0 | 0.00 | 0.00 | 0.00 | 86 | 1015.6 |
| 20260903062521 | 65 | 333 | 0.0 | 0.0 | 0.00 | 0.00 | 0.00 | 85 | 1015.5 |
| 20260903062019 | 65 | 333 | 0.0 | 0.0 | 0.00 | 0.00 | 0.00 | 85 | 1015.6 |
| 20260903061531 | 65 | 333 | 0.0 | 0.0 | 0.00 | 0.00 | 0.00 | 85 | 1015.7 |
| 20260903061022 | 65 | 333 | 0.0 | 0.0 | 0.00 | 0.00 | 0.00 | 85 | 1015.8 |
| 20260903060517 | 65 | 333 | 0.0 | 0.0 | 0.00 | 0.00 | 0.00 | 85 | 1015.9 |
| 20260903060019 | 65 | 333 | 0.0 | 0.0 | 0.00 | 0.00 | 0.00 | 85 | 1016.2 |
| 20260903055516 | 64 | 333 | 0.0 | 0.0 | 0.00 | 0.00 | 0.00 | 85 | 1016.1 |
| 20260903055015 | 64 | 333 | 0.0 | 0.0 | 0.00 | 0.00 | 0.00 | 85 | 1016.1 |
| 20260903054615 | 64 | 333 | 0.0 | 0.0 | 0.00 | 0.00 | 0.00 | 85 | 1016.2 |
| 20260903054014 | 64 | 333 | 0.0 | 0.0 | 0.00 | 0.00 | 0.00 | 85 | 1016.2 |
| 20260903053517 | 64 | 333 | 0.0 | 0.0 | 0.00 | 0.00 | 0.00 | 85 | 1016.4 |
| 20260903053026 | 64 | 333 | 0.0 | 0.0 | 0.00 | 0.00 | 0.00 | 86 | 1016.4 |
| 20260903052512 | 64 | 333 | 0.0 | 0.0 | 0.00 | 0.00 | 0.00 | 86 | 1016.4 |
| 20260903052013 | 64 | 333 | 0.0 | 0.0 | 0.00 | 0.00 | 0.00 | 86 | 1016.4 |
| 20260903051511 | 64 | 333 | 0.0 | 0.0 | 0.00 | 0.00 | 0.00 | 85 | 1016.5 |
| 20260903051010 | 64 | 333 | 0.0 | 0.0 | 0.00 | 0.00 | 0.00 | 86 | 1016.7 |
| 20260903050510 | 64 | 333 | 0.0 | 0.0 | 0.00 | 0.00 | 0.00 | 86 | 1016.6 |
| 20260903050010 | 64 | 333 | 0.0 | 0.0 | 0.00 | 0.00 | 0.00 | 85 | 1016.7 |
| 20260903045512 | 64 | 333 | 0.0 | 0.0 | 0.00 | 0.00 | 0.00 | 85 | 1016.8 |
| 20260903045009 | 64 | 333 | 0.0 | 0.0 | 0.00 | 0.00 | 0.00 | 85 | 1016.9 |
| 20260903044611 | 64 | 333 | 0.0 | 0.0 | 0.00 | 0.00 | 0.00 | 85 | 1016.9 |
| 20260903044011 | 64 | 333 | 0.0 | 0.0 | 0.00 | 0.00 | 0.00 | 84 | 1017.0 |
| 20260903043514 | 64 | 334 | 0.0 | 0.0 | 0.00 | 0.00 | 0.00 | 85 | 1017.0 |
| 20260903043027 | 64 | 334 | 0.0 | 0.0 | 0.00 | 0.00 | 0.00 | 84 | 1016.9 |
| 20260903042511 | 64 | 334 | 0.0 | 0.0 | 0.00 | 0.00 | 0.00 | 84 | 1016.9 |
| 20260903042010 | 64 | 334 | 0.0 | 0.0 | 0.00 | 0.00 | 0.00 | 84 | 1016.8 |
| 20260903041510 | 64 | 334 | 0.0 | 0.0 | 0.00 | 0.00 | 0.00 | 84 | 1016.7 |
| 20260903041010 | 64 | 334 | 0.0 | 0.0 | 0.00 | 0.00 | 0.00 | 84 | 1016.8 |
| 20260903040511 | 64 | 334 | 0.0 | 0.0 | 0.00 | 0.00 | 0.00 | 84 | 1016.7 |
| 20260903040010 | 64 | 334 | 0.0 | 0.0 | 0.00 | 0.00 | 0.00 | 84 | 1016.6 |
| 20260903035509 | 64 | 334 | 0.0 | 0.0 | 0.00 | 0.00 | 0.00 | 84 | 1016.6 |
| 20260903035009 | 64 | 334 | 0.0 | 0.0 | 0.00 | 0.00 | 0.00 | 83 | 1016.6 |
| 20260903034614 | 64 | 334 | 0.0 | 0.0 | 0.00 | 0.00 | 0.00 | 84 | 1016.8 |
| 20260903034010 | 64 | 334 | 0.0 | 0.0 | 0.00 | 0.00 | 0.00 | 84 | 1016.8 |
| 20260903033507 | 63 | 334 | 0.0 | 0.0 | 0.00 | 0.00 | 0.00 | 84 | 1016.9 |
| 20260903033006 | 63 | 334 | 0.0 | 0.0 | 0.00 | 0.00 | 0.00 | 84 | 1017.0 |
| 20260903032506 | 63 | 334 | 0.0 | 0.0 | 0.00 | 0.00 | 0.00 | 84 | 1017.0 |
| 20260903032009 | 63 | 334 | 0.0 | 0.0 | 0.00 | 0.00 | 0.00 | 84 | 1017.0 |
| 20260903031504 | 63 | 334 | 0.0 | 0.0 | 0.00 | 0.00 | 0.00 | 83 | 1017.2 |
| 20260903031003 | 63 | 334 | 0.0 | 0.0 | 0.00 | 0.00 | 0.00 | 83 | 1017.3 |
| 20260903030508 | 63 | 334 | 0.0 | 0.0 | 0.00 | 0.00 | 0.00 | 83 | 1017.4 |
| 20260903030003 | 64 | 334 | 0.0 | 0.0 | 0.00 | 0.00 | 0.00 | 83 | 1017.4 |
| 20260903025502 | 64 | 334 | 0.0 | 0.0 | 0.00 | 0.00 | 0.00 | 83 | 1017.5 |
| 20260903025004 | 64 | 334 | 0.0 | 0.0 | 0.00 | 0.00 | 0.00 | 83 | 1017.5 |
| 20260903024613 | 63 | 334 | 0.0 | 0.0 | 0.00 | 0.00 | 0.00 | 83 | 1017.7 |
| 20260903024001 | 63 | 334 | 0.0 | 0.0 | 0.00 | 0.00 | 0.00 | 83 | 1017.7 |
| 20260903023501 | 63 | 352 | 0.0 | 0.0 | 0.00 | 0.00 | 0.00 | 83 | 1017.4 |
| 20260903023002 | 63 | 338 | 0.0 | 0.0 | 0.00 | 0.00 | 0.00 | 83 | 1017.6 |
| 20260903022503 | 63 | 338 | 0.0 | 0.0 | 0.00 | 0.00 | 0.00 | 82 | 1017.7 |
| 20260903022001 | 63 | 338 | 0.0 | 0.0 | 0.00 | 0.00 | 0.00 | 82 | 1017.6 |
| 20260903021600 | 63 | 338 | 0.0 | 0.0 | 0.00 | 0.00 | 0.00 | 82 | 1017.4 |
| 20260903021059 | 64 | 338 | 0.0 | 0.0 | 0.00 | 0.00 | 0.00 | 82 | 1017.4 |
| 20260903020601 | 64 | 338 | 0.0 | 0.0 | 0.00 | 0.00 | 0.00 | 82 | 1017.5 |
| 20260903020104 | 64 | 338 | 0.0 | 0.0 | 0.00 | 0.00 | 0.00 | 82 | 1017.5 |
| 20260903015558 | 64 | 338 | 0.0 | 0.0 | 0.00 | 0.00 | 0.00 | 81 | 1017.7 |
| 20260903015057 | 64 | 338 | 0.0 | 0.0 | 0.00 | 0.00 | 0.00 | 80 | 1017.7 |
| 20260903014602 | 64 | 338 | 0.0 | 0.0 | 0.00 | 0.00 | 0.00 | 80 | 1017.6 |
| 20260903014057 | 64 | 338 | 0.0 | 0.0 | 0.00 | 0.00 | 0.00 | 80 | 1017.6 |
| 20260903013555 | 64 | 338 | 0.0 | 0.0 | 0.00 | 0.00 | 0.00 | 81 | 1017.9 |
| 20260903013056 | 64 | 338 | 0.0 | 0.0 | 0.00 | 0.00 | 0.00 | 81 | 1017.9 |
| 20260903012559 | 64 | 338 | 0.0 | 0.0 | 0.00 | 0.00 | 0.00 | 81 | 1017.8 |
| 20260903012056 | 65 | 338 | 0.0 | 0.0 | 0.00 | 0.00 | 0.00 | 80 | 1017.9 |
| 20260903011558 | 65 | 338 | 0.0 | 0.0 | 0.00 | 0.00 | 0.00 | 80 | 1018.0 |
| 20260903011056 | 65 | 338 | 0.0 | 0.0 | 0.00 | 0.00 | 0.00 | 80 | 1018.0 |
| 20260903010555 | 65 | 338 | 0.0 | 0.0 | 0.00 | 0.00 | 0.00 | 80 | 1018.1 |
| 20260903010055 | 65 | 338 | 0.0 | 0.0 | 0.00 | 0.00 | 0.00 | 80 | 1017.9 |
| 20260903005554 | 65 | 338 | 0.0 | 0.0 | 0.00 | 0.00 | 0.00 | 80 | 1017.9 |
| 20260903005053 | 65 | 338 | 0.0 | 0.0 | 0.00 | 0.00 | 0.00 | 80 | 1017.9 |
| 20260903004554 | 65 | 338 | 0.0 | 0.0 | 0.00 | 0.00 | 0.00 | 80 | 1017.7 |
| 20260903004035 | 65 | 338 | 0.0 | 0.0 | 0.00 | 0.00 | 0.00 | 80 | 1017.6 |
| 20260903003530 | 65 | 338 | 0.0 | 0.0 | 0.00 | 0.00 | 0.00 | 80 | 1017.8 |
| 20260903003028 | 65 | 338 | 0.0 | 0.0 | 0.00 | 0.00 | 0.00 | 79 | 1017.8 |
| 20260903002528 | 65 | 338 | 0.0 | 0.0 | 0.00 | 0.00 | 0.00 | 79 | 1017.9 |
| 20260903002027 | 65 | 338 | 0.0 | 0.0 | 0.00 | 0.00 | 0.00 | 79 | 1018.1 |
| 20260903001527 | 65 | 338 | 0.0 | 0.0 | 0.00 | 0.00 | 0.00 | 78 | 1018.1 |
| 20260903001032 | 66 | 338 | 0.0 | 0.0 | 0.00 | 0.00 | 0.00 | 78 | 1018.1 |
| 20260903000525 | 66 | 338 | 0.0 | 0.0 | 0.00 | 0.00 | 0.00 | 78 | 1018.1 |
| 20260903000032 | 66 | 338 | 0.0 | 0.0 | 0.00 | 0.00 | 0.00 | 77 | 1018.3 |
| 20260902235525 | 66 | 338 | 0.0 | 0.0 | 0.00 | 0.00 | 0.00 | 77 | 1018.5 |
| 20260902235023 | 66 | 338 | 0.0 | 0.0 | 0.00 | 0.00 | 0.00 | 77 | 1018.6 |
| 20260902234052 | 67 | 338 | 0.0 | 0.0 | 0.00 | 0.00 | 0.00 | 75 | 1018.8 |
| 20260902233546 | 67 | 338 | 0.0 | 0.0 | 0.00 | 0.00 | 0.00 | 75 | 1018.6 |
| 20260902233046 | 67 | 338 | 0.0 | 0.0 | 0.00 | 0.00 | 0.00 | 74 | 1018.7 |
| 20260902232546 | 68 | 2 | 0.0 | 0.0 | 0.00 | 0.00 | 0.00 | 73 | 1018.7 |
| 20260902232044 | 68 | 2 | 0.0 | 0.0 | 0.00 | 0.00 | 0.00 | 73 | 1018.6 |
| 20260902231544 | 68 | 2 | 0.0 | 0.0 | 0.00 | 0.00 | 0.00 | 72 | 1018.9 |
| 20260902231043 | 68 | 2 | 0.0 | 0.0 | 0.00 | 0.00 | 0.00 | 72 | 1018.9 |
| 20260902230544 | 68 | 2 | 0.0 | 0.0 | 0.00 | 0.00 | 0.00 | 72 | 1018.9 |
| 20260902230042 | 68 | 2 | 0.0 | 0.0 | 0.00 | 0.00 | 0.00 | 72 | 1018.9 |
| 20260902225542 | 69 | 2 | 0.0 | 0.0 | 0.00 | 0.00 | 0.00 | 71 | 1018.8 |
| 20260902225041 | 69 | 2 | 0.0 | 0.0 | 0.00 | 0.00 | 0.00 | 71 | 1018.8 |
| 20260902224544 | 69 | 89 | 0.0 | 0.0 | 0.00 | 0.00 | 0.00 | 71 | 1018.9 |
| 20260902224039 | 69 | 88 | 0.0 | 0.0 | 0.00 | 0.00 | 0.00 | 71 | 1018.8 |
| 20260902223539 | 69 | 243 | 0.0 | 0.0 | 0.00 | 0.00 | 0.00 | 71 | 1018.7 |
| 20260902223042 | 69 | 243 | 0.0 | 0.0 | 0.00 | 0.01 | 0.00 | 71 | 1018.7 |
| 20260902222538 | 70 | 243 | 0.0 | 0.0 | 0.00 | 0.01 | 0.00 | 71 | 1018.7 |
| 20260902222037 | 70 | 243 | 0.0 | 0.0 | 0.00 | 0.01 | 0.00 | 70 | 1018.6 |
| 20260902221541 | 70 | 70 | 0.0 | 0.0 | 0.00 | 0.01 | 0.00 | 70 | 1018.6 |
| 20260902221036 | 70 | 70 | 0.0 | 0.0 | 0.00 | 0.01 | 0.00 | 69 | 1018.6 |
| 20260902220536 | 70 | 70 | 0.0 | 0.0 | 0.00 | 0.01 | 0.00 | 68 | 1018.6 |